| time (UTC) | temp F | wind direction | speed MPH | gust MPH | rain 1hr in | rain 24hr in | rain mn in | humidity % | barometer mb |
| 20260906152609 | 92 | 77 | 5.0 | 7.0 | 0.00 | 0.00 | 0.00 | 48 | 1011.5 |
| 20260906152103 | 92 | 129 | 7.0 | 7.0 | 0.00 | 0.00 | 0.00 | 48 | 1011.3 |
| 20260906151558 | 92 | 138 | 6.0 | 7.0 | 0.00 | 0.00 | 0.00 | 48 | 1011.4 |
| 20260906151054 | 93 | 351 | 2.0 | 4.0 | 0.00 | 0.00 | 0.00 | 48 | 1011.5 |
| 20260906150549 | 92 | 140 | 3.0 | 4.0 | 0.00 | 0.00 | 0.00 | 49 | 1011.5 |
| 20260906150044 | 91 | 62 | 5.0 | 5.0 | 0.00 | 0.00 | 0.00 | 50 | 1011.5 |
| 20260906145543 | 91 | 8 | 2.0 | 4.0 | 0.00 | 0.00 | 0.00 | 50 | 1011.3 |
| 20260906145038 | 91 | 130 | 6.0 | 7.0 | 0.00 | 0.00 | 0.00 | 50 | 1011.5 |
| 20260906144532 | 90 | 87 | 2.0 | 5.0 | 0.00 | 0.00 | 0.00 | 52 | 1011.6 |
| 20260906144027 | 90 | 114 | 4.0 | 6.0 | 0.00 | 0.00 | 0.00 | 51 | 1011.4 |
| 20260906143522 | 89 | 60 | 2.0 | 4.0 | 0.00 | 0.00 | 0.00 | 52 | 1011.5 |
| 20260906143019 | 89 | 17 | 2.0 | 6.0 | 0.00 | 0.00 | 0.00 | 52 | 1011.3 |
| 20260906142519 | 90 | 96 | 2.0 | 5.0 | 0.00 | 0.00 | 0.00 | 53 | 1011.6 |
| 20260906142014 | 90 | 100 | 3.0 | 6.0 | 0.00 | 0.00 | 0.00 | 51 | 1011.4 |
| 20260906141513 | 88 | 101 | 2.0 | 6.0 | 0.00 | 0.00 | 0.00 | 55 | 1011.5 |
| 20260906141009 | 88 | 32 | 2.0 | 3.0 | 0.00 | 0.00 | 0.00 | 56 | 1011.3 |
| 20260906140509 | 88 | 99 | 3.0 | 6.0 | 0.00 | 0.00 | 0.00 | 55 | 1011.3 |
| 20260906140008 | 86 | 23 | 2.0 | 4.0 | 0.00 | 0.00 | 0.00 | 59 | 1011.5 |
| 20260906135505 | 85 | 8 | 3.0 | 4.0 | 0.00 | 0.00 | 0.00 | 59 | 1011.3 |
| 20260906135001 | 85 | 21 | 5.0 | 7.0 | 0.00 | 0.00 | 0.00 | 60 | 1011.2 |
| 20260906134456 | 84 | 43 | 3.0 | 6.0 | 0.00 | 0.00 | 0.00 | 62 | 1011.3 |
| 20260906133956 | 85 | 17 | 3.0 | 6.0 | 0.00 | 0.00 | 0.00 | 62 | 1011.5 |
| 20260906133452 | 86 | 357 | 4.0 | 4.0 | 0.00 | 0.00 | 0.00 | 61 | 1011.3 |
| 20260906132947 | 86 | 37 | 3.0 | 4.0 | 0.00 | 0.00 | 0.00 | 60 | 1011.4 |
| 20260906132443 | 86 | 55 | 1.0 | 3.0 | 0.00 | 0.00 | 0.00 | 59 | 1011.5 |
| 20260906131938 | 86 | 269 | 0.0 | 1.0 | 0.00 | 0.00 | 0.00 | 61 | 1011.3 |
| 20260906131433 | 86 | 327 | 1.0 | 2.0 | 0.00 | 0.00 | 0.00 | 61 | 1011.3 |
| 20260906130929 | 87 | 146 | 0.0 | 2.0 | 0.00 | 0.00 | 0.00 | 61 | 1011.4 |
| 20260906130428 | 86 | 147 | 0.0 | 2.0 | 0.00 | 0.00 | 0.00 | 62 | 1011.4 |
| 20260906125929 | 84 | 226 | 1.0 | 2.0 | 0.00 | 0.00 | 0.00 | 66 | 1011.3 |
| 20260906125426 | 82 | 291 | 0.0 | 2.0 | 0.00 | 0.00 | 0.00 | 70 | 1011.3 |
| 20260906124925 | 81 | 348 | 0.0 | 2.0 | 0.00 | 0.00 | 0.00 | 72 | 1011.2 |
| 20260906124421 | 78 | 89 | 0.0 | 2.0 | 0.00 | 0.00 | 0.00 | 75 | 1011.1 |
| 20260906123916 | 78 | 230 | 0.0 | 0.0 | 0.00 | 0.00 | 0.00 | 75 | 1010.9 |
| 20260906123415 | 78 | 303 | 0.0 | 1.0 | 0.00 | 0.00 | 0.00 | 76 | 1010.9 |
| 20260906122915 | 77 | 309 | 0.0 | 0.0 | 0.00 | 0.00 | 0.00 | 78 | 1010.8 |
| 20260906122410 | 76 | 243 | 0.0 | 1.0 | 0.00 | 0.00 | 0.00 | 77 | 1010.7 |
| 20260906121907 | 77 | 205 | 0.0 | 1.0 | 0.00 | 0.00 | 0.00 | 77 | 1010.7 |
| 20260906121403 | 75 | 89 | 0.0 | 1.0 | 0.00 | 0.00 | 0.00 | 79 | 1010.5 |
| 20260906120859 | 75 | 230 | 0.0 | 0.0 | 0.00 | 0.00 | 0.00 | 80 | 1010.5 |
| 20260906120354 | 75 | 89 | 0.0 | 1.0 | 0.00 | 0.00 | 0.00 | 80 | 1010.6 |
| 20260906115850 | 75 | 187 | 0.0 | 1.0 | 0.00 | 0.00 | 0.00 | 79 | 1010.7 |
| 20260906115346 | 75 | 189 | 1.0 | 2.0 | 0.00 | 0.00 | 0.00 | 79 | 1010.6 |
| 20260906114845 | 75 | 247 | 0.0 | 1.0 | 0.00 | 0.00 | 0.00 | 80 | 1010.5 |
| 20260906114340 | 74 | 357 | 0.0 | 1.0 | 0.00 | 0.00 | 0.00 | 82 | 1010.7 |
| 20260906113835 | 74 | 71 | 1.0 | 2.0 | 0.00 | 0.00 | 0.00 | 82 | 1010.7 |
| 20260906113334 | 74 | 55 | 0.0 | 2.0 | 0.00 | 0.00 | 0.00 | 81 | 1010.5 |
| 20260906112829 | 75 | 189 | 2.0 | 3.0 | 0.00 | 0.00 | 0.00 | 80 | 1010.4 |
| 20260906112326 | 75 | 214 | 2.0 | 2.0 | 0.00 | 0.00 | 0.00 | 79 | 1010.5 |
| 20260906111826 | 75 | 246 | 0.0 | 1.0 | 0.00 | 0.00 | 0.00 | 80 | 1010.5 |
| 20260906111326 | 75 | 291 | 0.0 | 2.0 | 0.00 | 0.00 | 0.00 | 80 | 1010.6 |
| 20260906110821 | 75 | 142 | 0.0 | 3.0 | 0.00 | 0.00 | 0.00 | 79 | 1010.4 |
| 20260906110317 | 75 | 20 | 0.0 | 2.0 | 0.00 | 0.00 | 0.00 | 79 | 1010.3 |
| 20260906105815 | 75 | 299 | 0.0 | 2.0 | 0.00 | 0.00 | 0.00 | 79 | 1010.2 |
| 20260906105311 | 75 | 122 | 1.0 | 2.0 | 0.00 | 0.00 | 0.00 | 79 | 1010.5 |
| 20260906104807 | 75 | 231 | 2.0 | 2.0 | 0.00 | 0.00 | 0.00 | 78 | 1010.3 |
| 20260906104305 | 75 | 313 | 2.0 | 2.0 | 0.00 | 0.00 | 0.00 | 78 | 1010.1 |
| 20260906103803 | 76 | 349 | 2.0 | 4.0 | 0.00 | 0.00 | 0.00 | 77 | 1010.1 |
| 20260906103303 | 76 | 7 | 2.0 | 3.0 | 0.00 | 0.00 | 0.00 | 77 | 1010.1 |
| 20260906102759 | 76 | 9 | 4.0 | 5.0 | 0.00 | 0.00 | 0.00 | 76 | 1010.2 |
| 20260906102258 | 76 | 23 | 2.0 | 3.0 | 0.00 | 0.00 | 0.00 | 75 | 1010.3 |
| 20260906101753 | 76 | 356 | 3.0 | 6.0 | 0.00 | 0.00 | 0.00 | 74 | 1009.9 |
| 20260906101248 | 77 | 353 | 5.0 | 9.0 | 0.00 | 0.00 | 0.00 | 73 | 1010.0 |
| 20260906100743 | 76 | 338 | 2.0 | 5.0 | 0.00 | 0.00 | 0.00 | 74 | 1009.9 |
| 20260906100243 | 75 | 14 | 2.0 | 2.0 | 0.00 | 0.00 | 0.00 | 78 | 1010.1 |
| 20260906095738 | 75 | 356 | 2.0 | 2.0 | 0.00 | 0.00 | 0.00 | 77 | 1009.7 |
| 20260906095233 | 75 | 50 | 0.0 | 1.0 | 0.00 | 0.00 | 0.00 | 77 | 1009.7 |
| 20260906094732 | 75 | 343 | 0.0 | 0.0 | 0.00 | 0.00 | 0.00 | 77 | 1009.7 |
| 20260906094228 | 75 | 129 | 0.0 | 1.0 | 0.00 | 0.00 | 0.00 | 76 | 1009.7 |
| 20260906093724 | 75 | 255 | 0.0 | 1.0 | 0.00 | 0.00 | 0.00 | 76 | 1009.7 |
| 20260906093219 | 75 | 229 | 0.0 | 1.0 | 0.00 | 0.00 | 0.00 | 76 | 1009.5 |
| 20260906092715 | 75 | 310 | 1.0 | 1.0 | 0.00 | 0.00 | 0.00 | 76 | 1009.6 |
| 20260906092214 | 75 | 39 | 1.0 | 2.0 | 0.00 | 0.00 | 0.00 | 77 | 1009.6 |
| 20260906091711 | 75 | 174 | 0.0 | 2.0 | 0.00 | 0.00 | 0.00 | 76 | 1009.5 |
| 20260906091207 | 75 | 280 | 0.0 | 1.0 | 0.00 | 0.00 | 0.00 | 76 | 1009.7 |
| 20260906090703 | 75 | 269 | 0.0 | 1.0 | 0.00 | 0.00 | 0.00 | 75 | 1009.7 |
| 20260906090202 | 75 | 269 | 0.0 | 0.0 | 0.00 | 0.00 | 0.00 | 76 | 1009.6 |
| 20260906085701 | 75 | 315 | 0.0 | 1.0 | 0.00 | 0.00 | 0.00 | 76 | 1009.5 |
| 20260906085200 | 75 | 67 | 0.0 | 2.0 | 0.00 | 0.00 | 0.00 | 76 | 1009.5 |
| 20260906084655 | 75 | 195 | 0.0 | 1.0 | 0.00 | 0.00 | 0.00 | 76 | 1009.6 |
| 20260906084154 | 75 | 246 | 0.0 | 1.0 | 0.00 | 0.00 | 0.00 | 75 | 1009.5 |
| 20260906083649 | 75 | 37 | 0.0 | 0.0 | 0.00 | 0.00 | 0.00 | 75 | 1009.6 |
| 20260906083145 | 76 | 53 | 1.0 | 2.0 | 0.00 | 0.00 | 0.00 | 74 | 1009.6 |
| 20260906082640 | 76 | 104 | 0.0 | 1.0 | 0.00 | 0.00 | 0.00 | 74 | 1009.7 |
| 20260906082136 | 76 | 253 | 0.0 | 1.0 | 0.00 | 0.00 | 0.00 | 74 | 1009.5 |
| 20260906081632 | 76 | 75 | 0.0 | 1.0 | 0.00 | 0.00 | 0.00 | 74 | 1009.5 |
| 20260906081126 | 76 | 224 | 0.0 | 1.0 | 0.00 | 0.00 | 0.00 | 74 | 1009.3 |
| 20260906080623 | 76 | 209 | 1.0 | 2.0 | 0.00 | 0.00 | 0.00 | 74 | 1009.4 |
| 20260906080119 | 76 | 17 | 2.0 | 2.0 | 0.00 | 0.00 | 0.00 | 75 | 1009.2 |
| 20260906075618 | 76 | 224 | 0.0 | 1.0 | 0.00 | 0.00 | 0.00 | 74 | 1009.5 |
| 20260906075113 | 77 | 205 | 0.0 | 1.0 | 0.00 | 0.00 | 0.00 | 74 | 1009.5 |
| 20260906074608 | 77 | 322 | 0.0 | 0.0 | 0.00 | 0.00 | 0.00 | 72 | 1009.5 |
| 20260906074107 | 77 | 15 | 0.0 | 0.0 | 0.00 | 0.00 | 0.00 | 72 | 1009.6 |
| 20260906073602 | 77 | 217 | 0.0 | 0.0 | 0.00 | 0.00 | 0.00 | 72 | 1009.5 |
| 20260906073058 | 77 | 217 | 0.0 | 1.0 | 0.00 | 0.00 | 0.00 | 74 | 1009.5 |
| 20260906072552 | 77 | 333 | 0.0 | 0.0 | 0.00 | 0.00 | 0.00 | 71 | 1009.8 |
| 20260906072049 | 77 | 333 | 0.0 | 0.0 | 0.00 | 0.00 | 0.00 | 72 | 1009.9 |
| 20260906071545 | 77 | 333 | 0.0 | 0.0 | 0.00 | 0.00 | 0.00 | 72 | 1009.7 |
| 20260906071039 | 77 | 333 | 0.0 | 0.0 | 0.00 | 0.00 | 0.00 | 72 | 1009.8 |
| 20260906070536 | 77 | 333 | 0.0 | 0.0 | 0.00 | 0.00 | 0.00 | 72 | 1009.8 |
| 20260906070031 | 77 | 255 | 0.0 | 0.0 | 0.00 | 0.00 | 0.00 | 72 | 1009.7 |
| 20260906065531 | 77 | 255 | 0.0 | 0.0 | 0.00 | 0.00 | 0.00 | 71 | 1009.8 |
| 20260906065027 | 77 | 235 | 0.0 | 0.0 | 0.00 | 0.00 | 0.00 | 71 | 1009.7 |
| 20260906064522 | 77 | 50 | 0.0 | 0.0 | 0.00 | 0.00 | 0.00 | 70 | 1009.8 |
| 20260906064023 | 77 | 50 | 0.0 | 0.0 | 0.00 | 0.00 | 0.00 | 71 | 1009.9 |
| 20260906063518 | 78 | 217 | 0.0 | 0.0 | 0.00 | 0.00 | 0.00 | 70 | 1010.0 |
| 20260906063014 | 78 | 256 | 0.0 | 0.0 | 0.00 | 0.00 | 0.00 | 70 | 1009.9 |
| 20260906062509 | 78 | 256 | 0.0 | 0.0 | 0.00 | 0.00 | 0.00 | 69 | 1010.0 |
| 20260906062003 | 78 | 256 | 0.0 | 0.0 | 0.00 | 0.00 | 0.00 | 69 | 1010.1 |
| 20260906061459 | 78 | 154 | 0.0 | 0.0 | 0.00 | 0.00 | 0.00 | 70 | 1009.9 |
| 20260906060953 | 78 | 205 | 0.0 | 0.0 | 0.00 | 0.00 | 0.00 | 69 | 1010.2 |
| 20260906060450 | 78 | 221 | 0.0 | 1.0 | 0.00 | 0.00 | 0.00 | 69 | 1009.9 |
| 20260906055947 | 78 | 44 | 0.0 | 0.0 | 0.00 | 0.00 | 0.00 | 70 | 1010.1 |
| 20260906055443 | 78 | 44 | 0.0 | 0.0 | 0.00 | 0.00 | 0.00 | 69 | 1010.1 |
| 20260906054938 | 78 | 217 | 0.0 | 0.0 | 0.00 | 0.00 | 0.00 | 69 | 1010.2 |
| 20260906054432 | 78 | 217 | 0.0 | 1.0 | 0.00 | 0.00 | 0.00 | 69 | 1010.0 |
| 20260906053928 | 78 | 142 | 0.0 | 0.0 | 0.00 | 0.00 | 0.00 | 69 | 1010.1 |
| 20260906053424 | 78 | 343 | 0.0 | 0.0 | 0.00 | 0.00 | 0.00 | 70 | 1010.3 |
| 20260906052920 | 78 | 297 | 0.0 | 0.0 | 0.00 | 0.00 | 0.00 | 69 | 1010.2 |
| 20260906052416 | 78 | 48 | 0.0 | 0.0 | 0.00 | 0.00 | 0.00 | 69 | 1010.0 |
| 20260906051912 | 78 | 224 | 0.0 | 1.0 | 0.00 | 0.00 | 0.00 | 69 | 1010.0 |
| 20260906051412 | 78 | 213 | 0.0 | 2.0 | 0.00 | 0.00 | 0.00 | 69 | 1010.0 |
| 20260906050909 | 78 | 326 | 0.0 | 0.0 | 0.00 | 0.00 | 0.00 | 69 | 1009.9 |
| 20260906050408 | 78 | 309 | 0.0 | 0.0 | 0.00 | 0.00 | 0.00 | 69 | 1009.9 |
| 20260906045907 | 79 | 29 | 0.0 | 1.0 | 0.00 | 0.00 | 0.00 | 68 | 1010.0 |
| 20260906045406 | 79 | 104 | 0.0 | 0.0 | 0.00 | 0.00 | 0.00 | 67 | 1010.0 |
| 20260906044902 | 80 | 230 | 0.0 | 0.0 | 0.00 | 0.00 | 0.00 | 67 | 1010.0 |
| 20260906044403 | 80 | 230 | 0.0 | 1.0 | 0.00 | 0.00 | 0.00 | 65 | 1010.0 |
| 20260906043858 | 80 | 202 | 0.0 | 1.0 | 0.00 | 0.00 | 0.00 | 66 | 1010.0 |
| 20260906043354 | 80 | 341 | 0.0 | 1.0 | 0.00 | 0.00 | 0.00 | 65 | 1010.0 |
| 20260906042849 | 80 | 55 | 0.0 | 1.0 | 0.00 | 0.00 | 0.00 | 65 | 1010.0 |
| 20260906042348 | 80 | 209 | 0.0 | 1.0 | 0.00 | 0.00 | 0.00 | 66 | 1010.0 |
| 20260906041844 | 80 | 50 | 0.0 | 1.0 | 0.00 | 0.00 | 0.00 | 65 | 1009.9 |
| 20260906041339 | 81 | 129 | 0.0 | 1.0 | 0.00 | 0.00 | 0.00 | 64 | 1010.0 |
| 20260906040839 | 82 | 55 | 0.0 | 1.0 | 0.00 | 0.00 | 0.00 | 63 | 1010.1 |
| 20260906040334 | 82 | 250 | 0.0 | 1.0 | 0.00 | 0.00 | 0.00 | 61 | 1010.0 |
| 20260906035830 | 82 | 12 | 1.0 | 2.0 | 0.00 | 0.00 | 0.00 | 65 | 1009.9 |
| 20260906035325 | 83 | 234 | 1.0 | 2.0 | 0.00 | 0.00 | 0.00 | 61 | 1010.0 |
| 20260906034820 | 83 | 230 | 0.0 | 2.0 | 0.00 | 0.00 | 0.00 | 59 | 1010.1 |
| 20260906034315 | 84 | 211 | 1.0 | 1.0 | 0.00 | 0.00 | 0.00 | 57 | 1009.9 |
| 20260906033811 | 84 | 330 | 0.0 | 1.0 | 0.00 | 0.00 | 0.00 | 57 | 1010.1 |
| 20260906033310 | 85 | 193 | 0.0 | 1.0 | 0.00 | 0.00 | 0.00 | 57 | 1009.8 |
| 20260906032807 | 84 | 322 | 1.0 | 2.0 | 0.00 | 0.00 | 0.00 | 59 | 1010.1 |
| 20260906032305 | 83 | 181 | 0.0 | 1.0 | 0.00 | 0.00 | 0.00 | 61 | 1010.0 |
| 20260906031757 | 82 | 325 | 0.0 | 2.0 | 0.00 | 0.00 | 0.00 | 64 | 1010.1 |
| 20260906031253 | 81 | 326 | 1.0 | 1.0 | 0.00 | 0.00 | 0.00 | 64 | 1010.0 |
| 20260906030752 | 81 | 142 | 0.0 | 1.0 | 0.00 | 0.00 | 0.00 | 65 | 1009.9 |
| 20260906030248 | 81 | 297 | 0.0 | 1.0 | 0.00 | 0.00 | 0.00 | 64 | 1009.8 |
| 20260906025747 | 81 | 222 | 2.0 | 2.0 | 0.00 | 0.00 | 0.00 | 65 | 1009.9 |
| 20260906025241 | 81 | 37 | 0.0 | 2.0 | 0.00 | 0.00 | 0.00 | 64 | 1009.8 |
| 20260906024740 | 80 | 352 | 2.0 | 3.0 | 0.00 | 0.00 | 0.00 | 65 | 1010.0 |
| 20260906024239 | 80 | 173 | 0.0 | 1.0 | 0.00 | 0.00 | 0.00 | 65 | 1009.9 |
| 20260906023735 | 80 | 230 | 0.0 | 1.0 | 0.00 | 0.00 | 0.00 | 65 | 1009.6 |
| 20260906023230 | 80 | 203 | 1.0 | 1.0 | 0.00 | 0.00 | 0.00 | 64 | 1009.6 |
| 20260906022726 | 80 | 343 | 0.0 | 0.0 | 0.00 | 0.00 | 0.00 | 64 | 1009.5 |
| 20260906022221 | 80 | 224 | 0.0 | 0.0 | 0.00 | 0.00 | 0.00 | 64 | 1009.2 |
| 20260906021717 | 80 | 224 | 0.0 | 0.0 | 0.00 | 0.00 | 0.00 | 63 | 1009.3 |
| 20260906021216 | 81 | 217 | 0.0 | 1.0 | 0.00 | 0.00 | 0.00 | 63 | 1009.2 |
| 20260906020711 | 80 | 50 | 0.0 | 0.0 | 0.00 | 0.00 | 0.00 | 62 | 1008.9 |
| 20260906020205 | 81 | 50 | 0.0 | 0.0 | 0.00 | 0.00 | 0.00 | 62 | 1009.1 |
| 20260906015700 | 81 | 217 | 0.0 | 0.0 | 0.00 | 0.00 | 0.00 | 62 | 1008.8 |
| 20260906015159 | 81 | 231 | 0.0 | 0.0 | 0.00 | 0.00 | 0.00 | 62 | 1008.9 |
| 20260906014658 | 81 | 25 | 0.0 | 1.0 | 0.00 | 0.00 | 0.00 | 62 | 1008.9 |
| 20260906014155 | 81 | 37 | 0.0 | 0.0 | 0.00 | 0.00 | 0.00 | 62 | 1009.0 |
| 20260906013650 | 81 | 212 | 0.0 | 1.0 | 0.00 | 0.00 | 0.00 | 62 | 1008.9 |
| 20260906013146 | 82 | 202 | 1.0 | 2.0 | 0.00 | 0.00 | 0.00 | 61 | 1008.8 |
| 20260906012646 | 81 | 212 | 0.0 | 1.0 | 0.00 | 0.00 | 0.00 | 60 | 1008.7 |
| 20260906012145 | 81 | 333 | 0.0 | 0.0 | 0.00 | 0.00 | 0.00 | 60 | 1008.7 |
| 20260906011642 | 81 | 154 | 0.0 | 0.0 | 0.00 | 0.00 | 0.00 | 61 | 1008.8 |
| 20260906011136 | 81 | 22 | 0.0 | 0.0 | 0.00 | 0.00 | 0.00 | 61 | 1008.6 |
| 20260906010631 | 82 | 32 | 0.0 | 0.0 | 0.00 | 0.00 | 0.00 | 61 | 1008.6 |
| 20260906010128 | 82 | 217 | 0.0 | 0.0 | 0.00 | 0.00 | 0.00 | 60 | 1008.4 |
| 20260906005627 | 82 | 217 | 0.0 | 0.0 | 0.00 | 0.00 | 0.00 | 59 | 1008.1 |
| 20260906005127 | 83 | 217 | 0.0 | 2.0 | 0.00 | 0.00 | 0.00 | 60 | 1008.4 |
| 20260906004626 | 83 | 217 | 0.0 | 1.0 | 0.00 | 0.00 | 0.00 | 58 | 1008.1 |
| 20260906004121 | 84 | 89 | 0.0 | 0.0 | 0.00 | 0.00 | 0.00 | 58 | 1008.4 |
| 20260906003616 | 84 | 205 | 0.0 | 0.0 | 0.00 | 0.00 | 0.00 | 57 | 1008.6 |
| 20260906003113 | 85 | 230 | 0.0 | 0.0 | 0.00 | 0.00 | 0.00 | 55 | 1008.8 |
| 20260906002612 | 86 | 50 | 0.0 | 1.0 | 0.00 | 0.00 | 0.00 | 54 | 1008.8 |
| 20260906002108 | 86 | 41 | 1.0 | 2.0 | 0.00 | 0.00 | 0.00 | 53 | 1008.6 |
| 20260906001603 | 86 | 117 | 0.0 | 0.0 | 0.00 | 0.00 | 0.00 | 51 | 1008.7 |
| 20260906001103 | 87 | 37 | 0.0 | 1.0 | 0.00 | 0.00 | 0.00 | 51 | 1008.8 |
| 20260906000559 | 87 | 224 | 0.0 | 2.0 | 0.00 | 0.00 | 0.00 | 50 | 1008.7 |
| 20260906000054 | 87 | 15 | 2.0 | 2.0 | 0.00 | 0.00 | 0.00 | 51 | 1008.8 |
| 20260905235553 | 88 | 35 | 2.0 | 4.0 | 0.00 | 0.00 | 0.00 | 50 | 1008.9 |
| 20260905235048 | 89 | 356 | 1.0 | 1.0 | 0.00 | 0.00 | 0.00 | 48 | 1008.8 |
| 20260905234543 | 90 | 29 | 3.0 | 3.0 | 0.00 | 0.00 | 0.00 | 46 | 1008.7 |
| 20260905234039 | 91 | 29 | 2.0 | 2.0 | 0.00 | 0.00 | 0.00 | 45 | 1008.8 |
| 20260905233538 | 91 | 209 | 2.0 | 4.0 | 0.00 | 0.00 | 0.00 | 45 | 1008.9 |
| 20260905233038 | 91 | 234 | 3.0 | 3.0 | 0.00 | 0.00 | 0.00 | 45 | 1008.8 |
| 20260905232534 | 91 | 161 | 0.0 | 3.0 | 0.00 | 0.00 | 0.00 | 45 | 1009.0 |
| 20260905232029 | 90 | 321 | 0.0 | 3.0 | 0.00 | 0.00 | 0.00 | 47 | 1008.9 |
| 20260905231524 | 90 | 238 | 0.0 | 2.0 | 0.00 | 0.00 | 0.00 | 47 | 1008.9 |
| 20260905231021 | 91 | 188 | 0.0 | 5.0 | 0.00 | 0.00 | 0.00 | 46 | 1008.9 |
| 20260905230520 | 91 | 229 | 0.0 | 2.0 | 0.00 | 0.00 | 0.00 | 44 | 1008.8 |
| 20260905230018 | 92 | 219 | 1.0 | 2.0 | 0.00 | 0.00 | 0.00 | 44 | 1008.7 |
| 20260905225513 | 92 | 335 | 2.0 | 4.0 | 0.00 | 0.00 | 0.00 | 43 | 1008.7 |
| 20260905225009 | 92 | 349 | 3.0 | 4.0 | 0.00 | 0.00 | 0.00 | 43 | 1008.7 |
| 20260905224503 | 92 | 354 | 4.0 | 6.0 | 0.00 | 0.00 | 0.00 | 43 | 1008.5 |
| 20260905224002 | 92 | 357 | 3.0 | 6.0 | 0.00 | 0.00 | 0.00 | 43 | 1008.4 |
| 20260905223501 | 93 | 0 | 3.0 | 6.0 | 0.00 | 0.00 | 0.00 | 42 | 1008.5 |
| 20260905222955 | 93 | 21 | 6.0 | 6.0 | 0.00 | 0.00 | 0.00 | 42 | 1008.3 |
| 20260905222455 | 93 | 356 | 4.0 | 6.0 | 0.00 | 0.00 | 0.00 | 41 | 1008.3 |
| 20260905221951 | 94 | 13 | 4.0 | 8.0 | 0.00 | 0.00 | 0.00 | 40 | 1008.4 |
| 20260905221447 | 95 | 23 | 4.0 | 8.0 | 0.00 | 0.00 | 0.00 | 39 | 1008.4 |
| 20260905220943 | 95 | 11 | 6.0 | 12.0 | 0.00 | 0.00 | 0.00 | 38 | 1008.1 |
| 20260905220439 | 95 | 36 | 6.0 | 10.0 | 0.00 | 0.00 | 0.00 | 38 | 1008.1 |
| 20260905215938 | 95 | 346 | 6.0 | 8.0 | 0.00 | 0.00 | 0.00 | 38 | 1008.1 |
| 20260905215434 | 96 | 34 | 6.0 | 9.0 | 0.00 | 0.00 | 0.00 | 37 | 1008.1 |
| 20260905214930 | 96 | 34 | 6.0 | 10.0 | 0.00 | 0.00 | 0.00 | 37 | 1008.4 |
| 20260905214426 | 96 | 38 | 7.0 | 10.0 | 0.00 | 0.00 | 0.00 | 37 | 1008.0 |
| 20260905213926 | 96 | 48 | 4.0 | 8.0 | 0.00 | 0.00 | 0.00 | 37 | 1008.1 |
| 20260905213422 | 96 | 352 | 6.0 | 9.0 | 0.00 | 0.00 | 0.00 | 36 | 1008.3 |
| 20260905212917 | 98 | 354 | 8.0 | 11.0 | 0.00 | 0.00 | 0.00 | 32 | 1008.5 |
| 20260905212412 | 99 | 355 | 2.0 | 5.0 | 0.00 | 0.00 | 0.00 | 30 | 1008.3 |
| 20260905211911 | 99 | 28 | 5.0 | 5.0 | 0.00 | 0.00 | 0.00 | 29 | 1008.1 |
| 20260905211407 | 99 | 71 | 4.0 | 4.0 | 0.00 | 0.00 | 0.00 | 30 | 1008.1 |
| 20260905210903 | 99 | 35 | 7.0 | 10.0 | 0.00 | 0.00 | 0.00 | 30 | 1008.3 |
| 20260905210403 | 100 | 77 | 2.0 | 5.0 | 0.00 | 0.00 | 0.00 | 29 | 1008.4 |
| 20260905205902 | 100 | 10 | 2.0 | 7.0 | 0.00 | 0.00 | 0.00 | 29 | 1008.4 |
| 20260905205357 | 100 | 124 | 3.0 | 10.0 | 0.00 | 0.00 | 0.00 | 28 | 1008.4 |
| 20260905204855 | 101 | 173 | 2.0 | 8.0 | 0.00 | 0.00 | 0.00 | 28 | 1008.4 |
| 20260905204352 | 101 | 169 | 0.0 | 6.0 | 0.00 | 0.00 | 0.00 | 29 | 1008.5 |
| 20260905203851 | 100 | 28 | 2.0 | 7.0 | 0.00 | 0.00 | 0.00 | 29 | 1008.8 |
| 20260905203347 | 100 | 86 | 9.0 | 9.0 | 0.00 | 0.00 | 0.00 | 29 | 1008.7 |
| 20260905202843 | 100 | 153 | 3.0 | 6.0 | 0.00 | 0.00 | 0.00 | 29 | 1008.9 |
| 20260905202343 | 100 | 37 | 5.0 | 9.0 | 0.00 | 0.00 | 0.00 | 30 | 1009.0 |
| 20260905201839 | 99 | 2 | 5.0 | 7.0 | 0.00 | 0.00 | 0.00 | 30 | 1008.9 |
| 20260905201334 | 100 | 35 | 12.0 | 14.0 | 0.00 | 0.00 | 0.00 | 29 | 1008.9 |
| 20260905200833 | 100 | 16 | 10.0 | 11.0 | 0.00 | 0.00 | 0.00 | 30 | 1009.1 |
| 20260905200330 | 101 | 45 | 9.0 | 9.0 | 0.00 | 0.00 | 0.00 | 29 | 1009.1 |
| 20260905195827 | 101 | 289 | 2.0 | 4.0 | 0.00 | 0.00 | 0.00 | 29 | 1009.3 |
| 20260905195323 | 100 | 163 | 5.0 | 9.0 | 0.00 | 0.00 | 0.00 | 29 | 1009.2 |
| 20260905194819 | 100 | 224 | 5.0 | 10.0 | 0.00 | 0.00 | 0.00 | 30 | 1009.3 |
| 20260905194319 | 100 | 166 | 7.0 | 9.0 | 0.00 | 0.00 | 0.00 | 29 | 1009.4 |
| 20260905193818 | 100 | 225 | 2.0 | 4.0 | 0.00 | 0.00 | 0.00 | 30 | 1009.4 |
| 20260905193313 | 100 | 180 | 3.0 | 5.0 | 0.00 | 0.00 | 0.00 | 30 | 1009.6 |
| 20260905192808 | 99 | 118 | 4.0 | 9.0 | 0.00 | 0.00 | 0.00 | 31 | 1009.7 |
| 20260905192306 | 99 | 193 | 6.0 | 7.0 | 0.00 | 0.00 | 0.00 | 31 | 1009.5 |
| 20260905191803 | 99 | 176 | 2.0 | 8.0 | 0.00 | 0.00 | 0.00 | 31 | 1009.5 |
| 20260905191302 | 100 | 132 | 7.0 | 9.0 | 0.00 | 0.00 | 0.00 | 30 | 1009.7 |
| 20260905190801 | 100 | 196 | 7.0 | 7.0 | 0.00 | 0.00 | 0.00 | 31 | 1009.9 |
| 20260905190301 | 100 | 50 | 4.0 | 8.0 | 0.00 | 0.00 | 0.00 | 30 | 1010.1 |
| 20260905185800 | 100 | 149 | 3.0 | 7.0 | 0.00 | 0.00 | 0.00 | 30 | 1010.0 |
| 20260905185254 | 99 | 330 | 3.0 | 4.0 | 0.00 | 0.00 | 0.00 | 31 | 1010.1 |
| 20260905184754 | 99 | 138 | 2.0 | 9.0 | 0.00 | 0.00 | 0.00 | 31 | 1010.0 |
| 20260905184254 | 100 | 107 | 4.0 | 9.0 | 0.00 | 0.00 | 0.00 | 30 | 1010.3 |
| 20260905183753 | 100 | 201 | 4.0 | 5.0 | 0.00 | 0.00 | 0.00 | 31 | 1010.2 |
| 20260905183249 | 100 | 17 | 3.0 | 5.0 | 0.00 | 0.00 | 0.00 | 31 | 1010.5 |
| 20260905182748 | 97 | 152 | 6.0 | 8.0 | 0.00 | 0.00 | 0.00 | 33 | 1010.3 |
| 20260905182247 | 98 | 180 | 2.0 | 6.0 | 0.00 | 0.00 | 0.00 | 33 | 1010.4 |
| 20260905181743 | 99 | 234 | 5.0 | 7.0 | 0.00 | 0.00 | 0.00 | 31 | 1010.5 |
| 20260905181242 | 98 | 184 | 2.0 | 6.0 | 0.00 | 0.00 | 0.00 | 32 | 1010.8 |
| 20260905180737 | 97 | 23 | 6.0 | 10.0 | 0.00 | 0.00 | 0.00 | 34 | 1010.8 |
| 20260905180232 | 97 | 79 | 2.0 | 6.0 | 0.00 | 0.00 | 0.00 | 33 | 1010.8 |
| 20260905175732 | 96 | 73 | 7.0 | 8.0 | 0.00 | 0.00 | 0.00 | 34 | 1011.1 |
| 20260905175227 | 96 | 180 | 0.0 | 4.0 | 0.00 | 0.00 | 0.00 | 35 | 1010.7 |
| 20260905174722 | 95 | 244 | 2.0 | 5.0 | 0.00 | 0.00 | 0.00 | 36 | 1010.8 |
| 20260905174218 | 95 | 325 | 5.0 | 8.0 | 0.00 | 0.00 | 0.00 | 36 | 1011.1 |
| 20260905173714 | 96 | 68 | 9.0 | 10.0 | 0.00 | 0.00 | 0.00 | 36 | 1011.3 |
| 20260905173210 | 96 | 75 | 8.0 | 11.0 | 0.00 | 0.00 | 0.00 | 36 | 1011.1 |
| 20260905172709 | 98 | 6 | 5.0 | 9.0 | 0.00 | 0.00 | 0.00 | 35 | 1011.2 |
| 20260905172203 | 98 | 110 | 3.0 | 6.0 | 0.00 | 0.00 | 0.00 | 35 | 1011.3 |
| 20260905171659 | 98 | 17 | 4.0 | 6.0 | 0.00 | 0.00 | 0.00 | 37 | 1011.3 |
| 20260905171155 | 97 | 38 | 4.0 | 6.0 | 0.00 | 0.00 | 0.00 | 37 | 1011.2 |
| 20260905170652 | 97 | 168 | 4.0 | 9.0 | 0.00 | 0.00 | 0.00 | 37 | 1011.3 |
| 20260905170152 | 97 | 137 | 3.0 | 6.0 | 0.00 | 0.00 | 0.00 | 36 | 1011.4 |
| 20260905165651 | 97 | 148 | 5.0 | 6.0 | 0.00 | 0.00 | 0.00 | 37 | 1011.6 |
| 20260905165147 | 97 | 35 | 2.0 | 4.0 | 0.00 | 0.00 | 0.00 | 37 | 1011.6 |
| 20260905164642 | 96 | 86 | 3.0 | 6.0 | 0.00 | 0.00 | 0.00 | 38 | 1011.5 |
| 20260905164141 | 97 | 135 | 4.0 | 4.0 | 0.00 | 0.00 | 0.00 | 38 | 1011.6 |
| 20260905163637 | 97 | 256 | 2.0 | 4.0 | 0.00 | 0.00 | 0.00 | 38 | 1011.7 |
| 20260905163134 | 97 | 297 | 4.0 | 4.0 | 0.00 | 0.00 | 0.00 | 36 | 1011.6 |
| 20260905162630 | 96 | 96 | 3.0 | 5.0 | 0.00 | 0.00 | 0.00 | 37 | 1011.8 |
| 20260905162129 | 96 | 324 | 2.0 | 5.0 | 0.00 | 0.00 | 0.00 | 38 | 1011.7 |
| 20260905161628 | 95 | 202 | 5.0 | 5.0 | 0.00 | 0.00 | 0.00 | 41 | 1012.0 |
| 20260905161127 | 96 | 134 | 4.0 | 5.0 | 0.00 | 0.00 | 0.00 | 41 | 1011.9 |
| 20260905160627 | 95 | 80 | 0.0 | 3.0 | 0.00 | 0.00 | 0.00 | 41 | 1011.7 |
| 20260905160127 | 94 | 114 | 0.0 | 4.0 | 0.00 | 0.00 | 0.00 | 44 | 1011.8 |
| 20260905155626 | 94 | 252 | 2.0 | 10.0 | 0.00 | 0.00 | 0.00 | 45 | 1012.0 |
| 20260905155125 | 94 | 353 | 4.0 | 5.0 | 0.00 | 0.00 | 0.00 | 44 | 1011.9 |
| 20260905154620 | 94 | 276 | 2.0 | 5.0 | 0.00 | 0.00 | 0.00 | 44 | 1011.9 |
| 20260905154116 | 94 | 341 | 2.0 | 4.0 | 0.00 | 0.00 | 0.00 | 46 | 1012.0 |
| 20260905153611 | 93 | 316 | 2.0 | 10.0 | 0.00 | 0.00 | 0.00 | 47 | 1011.8 |
| 20260905153106 | 92 | 202 | 1.0 | 6.0 | 0.00 | 0.00 | 0.00 | 48 | 1011.6 |